Find Starlink 34621

NORAD ID: 64774 Int'l Des: 2025-147 Owner: SPXS Country: US Constellation: starlink operational
LEOCIRCULAR

現在のビュー

3D地球を読み込み中...

About Starlink 34621

Starlink 34621 (NORAD 64774) is a starlink constellation satellite (v2 mini) launched Jul 8, 2025 by SPXS of US. It operates in LEO, CIRCULAR orbit with a mass of 575.00 kg.

次回通過

Passes for default location (London). Set your location on the main map for personalized predictions.

高度履歴

Loading altitude history...

軌道要素

1 64774U 25147V 26265.58089507 .00022669 00000-0 67987-3 0 9995
2 64774 53.1619 47.7158 0000751 94.9524 265.1564 15.34407226 68831
Epoch: Sep 22, 2026 • Age: 18 hours

現在のステータス

高度 466.1 km
遠地点 / 近地点 N/A
速度 7.64 km/s
衛星直下点 41.92°N, 65.01°E
打ち上げ日 Jul 8, 2025
運用期間 1.2 years
タイプ internet

技術仕様

分類 Payload
質量 575.00 kg
乾燥質量 530.00 kg
長さ 0.30 m
スパン 29.00 m
形状 ? Box + pan
製造者 SPXS
バスタイプ Starlink V2MO
フェーズステータス In Orbit
所有者/国 SPXS/US

Most Searched